KORONAS-FOTON

Last updated on Tue Oct 14 2025 00:02:14 GMT+0000 (Coordinated Universal Time)

1 33504U 09003A 25286.46363829 .00019111 00000+0 48994-3 0 9990 2 33504 82.4306 68.4542 0011129 330.1551 29.9058 15.39168491923061
UTC large
Height (km)
Speed (km/s)
/
Latitude / Longitude
Inclination (degrees)
Orbital Period (minutes)
Azimuth
Elevation
Range (km)
Doppler Factor

Next 0 passes for location: London (51.5072 / 0.1276)

Sorry there are no passes over London.